This is the latest recevied weather packets stored in our database for station/object K0CVS. If no packets are shown the sender has not sent any weather packets the latest 10 day(s).
| Time | Temp. | Humidity | Pressure | Rain* | Wind** | Luminosity | Snow |
|---|---|---|---|---|---|---|---|
| 1778036398 | 10° C | 83% | 1013.6 hPa | 0 mm | - | 0 W/m² | - |
| 1778036095 | 10° C | 86% | 1013.5 hPa | 0 mm | - | 0 W/m² | - |
| 1778035791 | 10° C | 88% | 1013.2 hPa | 1.78 mm | - | 0 W/m² | - |
| 1778035488 | 10° C | 90% | 1013.5 hPa | 1.78 mm | - | 0 W/m² | - |
| 1778035184 | 10° C | 91% | 1013.4 hPa | 0 mm | - | 0 W/m² | - |
| 1778034881 | 10° C | 91% | 1013.1 hPa | 0 mm | - | 0 W/m² | - |
| 1778034578 | 10° C | 91% | 1013 hPa | 0 mm | - | 0 W/m² | - |
| 1778034275 | 10° C | 91% | 1013.1 hPa | 0 mm | - | 0 W/m² | - |
| 1778033973 | 10° C | 91% | 1013.1 hPa | 0 mm | - | 0 W/m² | - |
| 1778033670 | 10° C | 91% | 1012.9 hPa | 0 mm | - | 0 W/m² | - |
| 1778033367 | 10° C | 90% | 1012.9 hPa | 0 mm | - | 0 W/m² | - |
| 1778033065 | 10° C | 90% | 1012.6 hPa | 0 mm | - | 0 W/m² | - |
| 1778032762 | 10° C | 90% | 1012.4 hPa | 0 mm | - | 0 W/m² | - |
| 1778032460 | 10° C | 90% | 1012.4 hPa | 0 mm | - | 0 W/m² | - |
| 1778032156 | 10° C | 89% | 1012.4 hPa | 0 mm | - | 0 W/m² | - |
| 1778031853 | 10° C | 89% | 1012.5 hPa | 0 mm | - | 0 W/m² | - |
| 1778031550 | 10° C | 88% | 1012.4 hPa | 0 mm | - | 0 W/m² | - |
| 1778031248 | 10° C | 88% | 1012.2 hPa | 0 mm | - | 0 W/m² | - |
| 1778030943 | 10.56° C | 87% | 1012.3 hPa | 0 mm | - | 0 W/m² | - |
| 1778030640 | 10.56° C | 87% | 1012.3 hPa | 0 mm | - | 0 W/m² | - |
| 1778030338 | 10.56° C | 86% | 1012.3 hPa | 0 mm | - | 1 W/m² | - |
| 1778030035 | 10.56° C | 86% | 1012.3 hPa | 0 mm | - | 1 W/m² | - |
| 1778029732 | 10.56° C | 84% | 1012.5 hPa | 0 mm | - | 2 W/m² | - |
| 1778029430 | 10.56° C | 84% | 1012.5 hPa | 0 mm | - | 4 W/m² | - |
| 1778029127 | 10.56° C | 84% | 1012.1 hPa | 0 mm | - | 5 W/m² | - |
* Rain latest hour (hover to see other rain measurements)
** Current wind speed in m/s (hover to see current wind gust speed)